Preview of NWS' New Version of Forecast
This preview is not operational and should not be used for support decisions.

Regional Weather Roundup (RWR)

Issued by National Weather Service (NWS)

                            
000
ASPQ40 PGUM 250810
RWRPQ 
WEATHER ROUNDUP FOR THE MARIANAS AND MICRONESIA
NATIONAL WEATHER SERVICE TIYAN GU
600 PM CHST SUN AUG 25 2019

GUZ001>004-250900-
MARIANA ISLANDS-
  
CITY           SKY/WX    TMP DP  RH WIND       PRES   REMARKS
GUAM AIRPORT   CLEAR     82  73  74 SE8       29.79R                  
ANDERSEN AFB   MOCLDY    82  75  78 S12       29.80R                  
ROTA AIRPORT   MOCLDY    82  73  74 SE10      29.78R                  
TINIAN AP      MOCLDY    84  79  84 SE9       29.80R HX  96           
SAIPAN AP      PTCLDY    84  77  79 SE10      29.81R HX  94           

$$

PMZ161-250900-
REPUBLIC OF PALAU-
  
CITY           SKY/WX    TMP DP  RH WIND       PRES   REMARKS
KOROR AP       CLOUDY    81  73  78 W15G22    29.73S                  
KOROR WSO      NOT AVBL                                               

$$

PMZ171>174-250900-
FEDERATED STATES OF MICRONESIA-
  
CITY           SKY/WX    TMP DP  RH WIND       PRES   REMARKS
YAP AIRPORT    NOT AVBL                                               
CHUUK AP       MOCLDY    79  79 100 SW8       29.83R                  
POHNPEI AP     NOT AVBL                                               
POHNPEI WSO    PTCLDY    84  77  79 NE3       29.85R HX  94           
KOSRAE AP      NOT AVBL                                               

$$

PMZ181-250900-
REPUBLIC OF THE MARSHALL ISLANDS-
  
CITY           SKY/WX    TMP DP  RH WIND       PRES   REMARKS
KWAJALEIN AP   CLEAR     84  77  79 E12       29.84R HX  94           
MAJURO AP      MOCLDY    86  77  74 E12       29.81R HX  97           
MAJURO WSO     MOCLDY    84  77  79 E5        29.81R HX  94           

$$